Total_Precipitation_Accumulation
0.77 0.70 0.59 0.61 0.56 0.59 0.66 0.70 0.72 0.71 0.73 0.71 0.69 0.68 0.68 0.63 0.59 0.57 0.69 0.89 1.24 1.40 1.19 0.96 0.77 0.68 0.67 0.66 0.64 0.72 0.78 0.81 0.87 0.95 0.95 0.94 0.90 0.80 0.69 0.62 0.58 0.53 0.62
0.71 0.74 0.68 0.69 0.70 0.68 0.68 0.68 0.66 0.76 0.78 0.75 0.71 0.70 0.68 0.59 0.58 0.65 0.75 0.87 0.92 1.09 1.32 1.28 1.11 0.94 0.80 0.71 0.69 0.68 0.70 0.71 0.74 0.83 0.92 0.85 0.77 0.70 0.63 0.55 0.57 0.49 0.50
0.68 0.73 0.76 0.76 0.78 0.79 0.78 0.80 0.79 0.85 0.80 0.78 0.77 0.71 0.65 0.58 0.60 0.67 0.68 0.73 0.63 0.59 0.85 1.16 1.29 1.18 1.07 0.95 0.83 0.71 0.64 0.63 0.66 0.74 0.85 0.81 0.67 0.65 0.57 0.54 0.54 0.53 0.48
0.70 0.79 0.80 0.83 0.89 0.82 0.80 0.86 0.90 0.94 0.90 0.89 0.89 0.76 0.61 0.61 0.62 0.65 0.70 0.70 0.67 0.52 0.55 0.64 0.79 0.92 1.13 1.21 1.05 0.82 0.66 0.56 0.59 0.67 0.78 0.70 0.57 0.55 0.57 0.59 0.54 0.54 0.50
0.88 0.95 0.99 1.01 1.03 1.05 0.98 0.87 0.89 0.94 1.01 1.00 0.91 0.83 0.69 0.66 0.71 0.71 0.82 0.80 0.73 0.63 0.62 0.49 0.46 0.51 0.69 0.95 1.01 0.96 0.82 0.61 0.55 0.61 0.66 0.60 0.51 0.48 0.48 0.51 0.50 0.46 0.43
1.15 1.25 1.23 1.18 1.24 1.32 1.33 1.12 1.15 1.09 1.03 1.08 0.99 0.92 0.87 0.80 0.80 0.83 0.85 0.87 0.90 0.75 0.70 0.58 0.49 0.34 0.41 0.63 0.79 0.91 0.91 0.75 0.61 0.57 0.58 0.55 0.50 0.49 0.44 0.40 0.43 0.42 0.39
1.49 1.64 1.60 1.59 1.57 1.54 1.50 1.44 1.55 1.49 1.23 1.13 1.27 1.23 1.10 0.94 0.88 0.85 0.85 0.92 1.01 0.98 0.95 0.79 0.66 0.48 0.38 0.40 0.46 0.64 0.85 0.90 0.83 0.73 0.66 0.66 0.57 0.50 0.48 0.45 0.41 0.41 0.41
1.72 1.75 1.94 2.03 1.99 2.08 2.06 1.87 1.98 1.97 1.64 1.39 1.56 1.80 1.53 1.34 0.96 0.85 0.89 0.90 0.99 1.08 1.14 0.96 0.78 0.63 0.55 0.52 0.37 0.41 0.56 0.80 0.95 0.87 0.79 0.74 0.66 0.54 0.48 0.48 0.44 0.40 0.41
1.87 1.89 2.00 2.15 2.16 2.23 2.30 2.37 2.30 2.34 2.13 1.77 1.67 1.90 1.71 1.57 1.36 0.96 0.91 1.01 1.09 1.16 1.22 1.21 1.04 0.81 0.74 0.72 0.55 0.40 0.36 0.44 0.75 0.87 0.86 0.79 0.70 0.61 0.51 0.48 0.46 0.44 0.41
2.06 2.13 2.14 2.25 2.27 2.27 2.35 2.46 2.41 2.49 2.53 2.17 1.92 1.71 1.51 1.46 1.53 1.30 1.07 1.02 1.17 1.23 1.25 1.28 1.23 1.06 0.92 0.89 0.78 0.59 0.41 0.33 0.48 0.81 0.95 0.90 0.78 0.71 0.60 0.54 0.47 0.44 0.46
2.17 2.20 2.26 2.41 2.39 2.35 2.33 2.53 2.57 2.64 2.56 2.48 2.32 2.14 1.98 1.70 1.35 1.40 1.38 1.23 1.17 1.11 1.17 1.29 1.34 1.29 1.14 1.04 1.05 0.82 0.57 0.39 0.38 0.68 0.90 1.04 0.97 0.91 0.79 0.69 0.61 0.55 0.51
2.20 2.09 2.02 2.14 2.20 2.23 2.22 2.39 2.55 2.68 2.65 2.67 2.56 2.26 2.17 2.02 1.64 1.57 1.44 1.32 1.33 1.16 1.10 1.15 1.17 1.18 1.22 1.16 1.08 1.07 0.80 0.55 0.40 0.52 0.74 0.86 0.98 1.05 1.00 0.90 0.83 0.75 0.67
2.02 2.05 1.95 1.94 1.97 1.92 1.95 2.07 2.12 2.20 2.33 2.47 2.38 2.16 2.10 1.93 1.88 1.87 1.75 1.51 1.33 1.12 1.12 1.09 1.07 1.07 1.08 1.09 1.17 1.27 0.92 0.65 0.45 0.39 0.50 0.61 0.70 0.85 0.95 0.98 0.98 0.97 0.94
1.72 1.80 1.80 1.74 1.78 1.83 1.84 1.91 1.90 1.91 1.93 2.00 2.00 2.06 2.10 1.96 1.88 1.79 1.77 1.89 1.65 1.41 1.25 1.12 1.10 1.11 1.07 1.06 1.22 1.30 0.97 0.78 0.56 0.43 0.39 0.42 0.48 0.62 0.76 0.90 1.00 1.08 1.09
1.28 1.34 1.44 1.51 1.60 1.65 1.71 1.84 1.90 1.89 1.84 1.81 1.91 1.96 1.90 1.87 1.84 1.73 1.68 1.76 1.81 1.66 1.52 1.32 1.21 1.15 1.17 1.15 1.25 1.04 0.96 0.89 0.71 0.59 0.50 0.43 0.41 0.47 0.53 0.69 0.81 0.83 0.89
0.94 1.00 1.11 1.28 1.50 1.62 1.66 1.72 1.76 1.85 1.88 1.82 1.89 2.00 1.99 1.98 2.01 1.93 1.79 1.73 1.67 1.67 1.59 1.36 1.19 1.10 1.23 1.16 1.26 1.06 1.00 1.10 0.90 0.72 0.62 0.54 0.49 0.47 0.46 0.52 0.59 0.59 0.59
0.78 0.89 0.95 1.09 1.24 1.42 1.60 1.75 1.76 1.74 1.77 1.76 1.71 1.78 1.89 1.98 2.09 2.10 2.07 1.92 1.78 1.74 1.64 1.47 1.28 1.13 1.25 1.30 1.25 1.19 1.09 0.98 0.92 0.84 0.73 0.69 0.62 0.52 0.50 0.52 0.58 0.54 0.53
0.62 0.71 0.84 1.05 1.16 1.24 1.29 1.37 1.45 1.48 1.49 1.54 1.52 1.48 1.57 1.69 1.82 1.97 2.04 1.98 1.96 1.86 1.76 1.70 1.53 1.29 1.18 1.22 1.25 1.32 1.25 1.06 0.98 1.03 0.94 0.81 0.73 0.63 0.56 0.52 0.55 0.52 0.50
0.61 0.66 0.80 0.95 1.01 1.06 1.09 1.11 1.21 1.29 1.29 1.27 1.31 1.28 1.30 1.40 1.53 1.65 1.74 1.82 1.94 1.98 1.95 1.85 1.76 1.56 1.31 1.29 1.32 1.32 1.32 1.37 1.17 1.09 1.09 1.03 0.92 0.83 0.77 0.68 0.60 0.54 0.52
0.62 0.69 0.84 0.94 0.95 0.91 1.00 1.03 1.08 1.11 1.07 1.03 1.06 1.07 1.11 1.14 1.21 1.33 1.47 1.68 1.87 1.97 2.03 2.00 1.91 1.68 1.49 1.43 1.41 1.40 1.44 1.47 1.43 1.24 1.15 1.10 1.14 1.04 0.91 0.79 0.71 0.62 0.59
0.64 0.71 0.76 0.87 0.92 0.90 0.93 0.99 0.98 0.92 0.90 0.90 0.86 0.77 0.79 0.85 0.86 0.94 0.99 1.27 1.52 1.73 1.85 1.92 1.88 1.71 1.50 1.39 1.29 1.32 1.43 1.55 1.59 1.53 1.44 1.23 1.17 1.12 1.05 0.94 0.82 0.72 0.64
0.53 0.58 0.64 0.80 0.91 0.82 0.93 0.92 0.85 0.78 0.74 0.78 0.75 0.69 0.67 0.71 0.62 0.59 0.63 0.84 1.13 1.33 1.50 1.66 1.71 1.58 1.44 1.36 1.39 1.39 1.39 1.40 1.39 1.32 1.31 1.34 1.26 1.18 1.11 1.03 1.00 0.92 0.84
0.47 0.52 0.56 0.73 0.82 0.90 0.85 0.70 0.74 0.73 0.74 0.75 0.78 0.80 0.73 0.68 0.76 0.67 0.61 0.68 0.77 0.88 1.03 1.28 1.48 1.47 1.56 1.48 1.37 1.31 1.31 1.33 1.30 1.32 1.29 1.30 1.24 1.15 1.06 1.03 1.11 1.01 0.96
0.44 0.49 0.55 0.59 0.67 0.80 0.74 0.59 0.63 0.63 0.73 0.81 0.84 0.93 0.93 0.87 0.84 0.91 0.85 0.86 0.84 0.77 0.83 0.76 0.96 1.31 1.45 1.50 1.43 1.43 1.49 1.40 1.29 1.29 1.25 1.25 1.24 1.17 1.03 0.96 1.02 0.92 0.83
0.48 0.50 0.55 0.58 0.64 0.68 0.64 0.57 0.60 0.66 0.79 0.82 0.79 0.90 0.92 0.85 0.90 0.96 1.08 1.13 1.05 0.91 1.04 1.05 0.96 1.05 1.18 1.23 1.32 1.36 1.39 1.31 1.27 1.22 1.09 1.02 1.00 1.05 1.08 1.00 0.97 0.98 0.87
0.46 0.48 0.47 0.47 0.52 0.54 0.59 0.50 0.60 0.72 0.78 0.79 0.80 0.86 0.99 0.90 0.87 0.86 0.95 1.07 1.06 0.94 0.83 0.87 0.84 0.74 0.68 0.78 0.96 1.10 1.33 1.39 1.33 1.22 1.07 0.98 0.99 0.96 0.99 0.93 0.85 0.86 0.84